Regional Weather Roundup
Issued by NWS Mobile, AL

Home | Current Version | Previous Version | Text Only | Print | Product List | Glossary On
Versions: 1 2 3 4 5 6 7 8 9 10 11 12 13 14 15 16 17 18 19 20 21 22 23 24 25 26 27
000
ASUS44 KMOB 151312
RWRMOB
REGIONAL WEATHER ROUNDUP
NATIONAL WEATHER SERVICE MOBILE AL
700 AM CST FRI DEC 15 2017

NOTE: "FAIR" INDICATES FEW OR NO CLOUDS BELOW 12,000 FEET WITH NO
      SIGNIFICANT WEATHER AND/OR OBSTRUCTIONS TO VISIBILITY.

  * THESE STATIONS ARE PART OF THE UNIVERSITY OF SOUTH ALABAMA
    MESONET AND ARE NOT UNDER NWS OR FAA QUALITY CONTROL.

ALZ061>064-151400-
COASTAL ALABAMA

CITY           SKY/WX    TMP DP  RH WIND       PRES   REMARKS
MOBILE REG APT CLOUDY    45  38  76 N9        30.11R
BROOKLEY FIELD CLOUDY    48  42  80 N10       30.11R
USA CAMPUS*    NOT AVBL
DOG RIVER*     NOT AVBL


CITY           SKY/WX    TMP DP  RH WIND       PRES   REMARKS
GULF SHORES    CLOUDY    50  43  77 N12       30.08R

$$

ALZ051>060-151400-
INTERIOR SOUTHWEST AND SOUTH CENTRAL ALABAMA

CITY           SKY/WX    TMP DP  RH WIND       PRES   REMARKS
GREENVILLE     CLOUDY    40  34  79 N8        30.08R
EVERGREEN      CLOUDY    41  37  86 N6        30.10R
ATMORE*          N/A    N/A N/A N/A N9          N/A
ANDALUSIA/OPP  CLOUDY    46  40  79 NW5       30.07R
ANDALUSIA*       N/A     43  41  93 NW2       30.06R
FLORALA APT    CLOUDY    45  40  82 N3        30.08R
FLORALA*         N/A     46  41  81 W6        30.76R

$$

FLZ001>006-151400-
WESTERN FLORIDA PANHANDLE

CITY           SKY/WX    TMP DP  RH WIND       PRES   REMARKS
PENSACOLA      CLOUDY    51  43  74 N12       30.07R
NAS PENSACOLA  CLOUDY    50  44  80 N7        30.07R
MILTON         CLOUDY    47  43  86 N5        30.07R
WHTNG S FIELD  CLOUDY    50  44  80 N8        30.07R


CITY           SKY/WX    TMP DP  RH WIND       PRES   REMARKS
JAY*             N/A     43  39  87 N9        30.09R
DUKE FIELD     CLOUDY    45  41  87 CALM      30.06R
CRESTVIEW      CLOUDY    47  42  83 N7        30.08R
VALPARAISO     MOCLDY    49  42  76 N6        30.05R
DESTIN         CLOUDY    54  43  66 N6        30.06R

$$

MSZ076-079-151400-
INTERIOR SOUTHEAST MISSISSIPPI

CITY           SKY/WX    TMP DP  RH WIND       PRES   REMARKS
LEAKESVILLE*     N/A     41  36  81 N5        30.14R
AGRICOLA*        N/A     41  39  93 NE6       30.10R

$$

MARINE OBSERVATIONS

STATION/POSITION TIME  TEMP    WIND        PRES    WAVE
                       AIR SEA DIR/SP/G            HT/PER
                 (UTC) (F)     (DEG/KT/KT) (MB)    (FT/S)
PASCAGOULA       1242   47     350/ 11/ 14 1018.6R
PETIT BOIS ISLND 1242   50     360/ 14/ 17 1019.2R
KATRINA CUT      1230   52     360/ 14     1018.3R
CEDAR POINT      1230   51      10/  9     1017.6R
E DAUPHIN ISLAND 1200   52     350/ 13/ 15 1017.7R
MIDDLE BAY LIGHT 1230   50     360/ 19     1018.3R
USCG MOBILE BAY  1242   46 54  360/  6/  9 1019.4R
STATE DOCKS      1242   46 55              1019.2R
MEAHER PARK      1230   47     330/  6     1018.6R
WEEKS BAY        1145   47                 1017.0S
FORT MORGAN      1242   52      20/ 14/ 16   N/A
12 S ORANGE BCH  NOT AVBL
PENSACOLA BAY    1242   52 55              1018.2R
64 S DAUPHIN ISL 1250   66 69  360/ 10/ 12 1017.7R   1/ 3
67 S FORT MORGAN 1230   66                 1016.9S

$$

SELECTED LOCATIONS ACROSS THE REGION

CITY           SKY/WX    TMP DP  RH WIND       PRES   REMARKS
NEW ORLEANS    CLOUDY    50  42  74 N10       30.13R
GULFPORT       CLOUDY    47  38  71 N12       30.11R
PASCAGOULA AP  CLOUDY    47  40  76 N13       30.10R
PASCAGOULA*      N/A     46  43  87 NE3         N/A
HATTIESBURG    CLOUDY    41  36  82 N5        30.16R
LAUREL         PTCLDY    39  34  82 N7        30.16R
MERIDIAN       CLOUDY    37  31  78 N7        30.17R
JACKSON        CLOUDY    40  30  67 N7        30.16R
MONTGOMERY     CLOUDY    40  31  70 N12       30.11R
TROY           PTCLDY    41  39  93 NW7       30.07R
ASHFORD*         N/A     43  41  93 NW2       30.06R
DOTHAN         CLOUDY    44  42  93 VRB3      30.07R
PANAMA CITY    CLOUDY    47  43  86 CALM      30.04S

$$





USA.gov is the U.S. government's official web portal to all federal, state and local government web resources and services.